KI0MQ Weather Reports


Display with metric or nautical units.
time (UTC)temp
F
wind
direction
speed
MPH
gust
MPH
rain 1hr
in
rain 24hr
in
rain mn
in
humidity
%
barometer
mb
20260506152004 50 325 2.0 7.0 0.00 0.00 0.00 47 1019.0
20260506151508 50 332 2.0 8.0 0.00 0.00 0.00 47 1019.1
20260506151003 50 356 2.0 8.0 0.00 0.00 0.00 54 1019.0
20260506150503 50 1 2.0 6.0 0.00 0.00 0.00 49 1019.0
20260506145504 50 339 2.0 6.0 0.00 0.00 0.00 48 1019.0
20260506145004 50 317 1.0 5.0 0.00 0.00 0.00 49 1019.1
20260506144508 49 299 0.0 3.0 0.00 0.00 0.00 50 1019.0
20260506144004 49 356 1.0 4.0 0.00 0.00 0.00 52 1019.1
20260506143503 48 2 1.0 4.0 0.00 0.00 0.00 52 1019.0
20260506143009 48 7 1.0 6.0 0.00 0.00 0.00 54 1019.0
20260506142504 48 350 0.0 6.0 0.00 0.00 0.00 54 1019.0
20260506142003 48 329 1.0 3.0 0.00 0.00 0.00 55 1019.0
20260506141003 47 354 1.0 4.0 0.00 0.00 0.00 54 1018.8
20260506140503 47 321 0.0 3.0 0.00 0.00 0.00 55 1018.8
20260506135504 46 322 1.0 4.0 0.00 0.00 0.00 58 1018.7
20260506135003 45 339 0.0 2.0 0.00 0.00 0.00 59 1018.8
20260506134003 45 328 0.0 3.0 0.00 0.00 0.00 60 1018.6
20260506133504 44 333 1.0 3.0 0.00 0.00 0.00 62 1018.6
20260506133008 44 343 1.0 4.0 0.00 0.00 0.00 61 1018.5
20260506132503 44 340 1.0 5.0 0.00 0.00 0.00 62 1018.5
20260506132005 43 338 1.0 5.0 0.00 0.00 0.00 62 1018.4
20260506131508 43 350 2.0 4.0 0.00 0.00 0.00 62 1018.3
20260506131003 42 351 1.0 4.0 0.00 0.00 0.00 64 1018.3
20260506130503 42 349 1.0 3.0 0.00 0.00 0.00 64 1018.2
20260506125505 41 346 0.0 3.0 0.00 0.00 0.00 68 1018.2
20260506125003 40 312 0.0 2.0 0.00 0.00 0.00 69 1018.2
20260506124508 40 306 0.0 2.0 0.00 0.00 0.00 71 1018.2
20260506124004 39 287 0.0 2.0 0.00 0.00 0.00 72 1018.1
20260506123503 39 285 0.0 3.0 0.00 0.00 0.00 74 1018.0
20260506122003 36 350 0.0 1.0 0.00 0.00 0.00 79 1017.7
20260506121508 36 350 0.0 1.0 0.00 0.00 0.00 80 1017.7
20260506121003 36 0 0.0 0.0 0.00 0.00 0.00 81 1017.6
20260506120503 35 0 0.0 0.0 0.00 0.00 0.00 81 1017.5
20260506120008 35 0 0.0 0.0 0.00 0.00 0.00 81 1017.4
20260506115003 34 0 0.0 0.0 0.00 0.00 0.00 80 1017.2
20260506114508 34 0 0.0 0.0 0.00 0.00 0.00 79 1017.2
20260506114003 34 0 0.0 0.0 0.00 0.00 0.00 79 1017.2
20260506113503 35 0 0.0 0.0 0.00 0.00 0.00 78 1017.1
20260506113008 35 0 0.0 0.0 0.00 0.00 0.00 78 1017.1
20260506112504 35 0 0.0 0.0 0.00 0.00 0.00 77 1017.0
20260506112003 35 0 0.0 0.0 0.00 0.00 0.00 76 1016.9
20260506111003 36 0 0.0 0.0 0.00 0.00 0.00 76 1017.0
20260506110503 36 0 0.0 0.0 0.00 0.00 0.00 76 1016.9
20260506110008 36 0 0.0 0.0 0.00 0.00 0.00 76 1017.0
20260506105503 36 0 0.0 0.0 0.00 0.00 0.00 75 1017.0
20260506105003 36 0 0.0 0.0 0.00 0.00 0.00 76 1016.9
20260506104508 37 0 0.0 0.0 0.00 0.00 0.00 75 1016.9
20260506104004 37 0 0.0 0.0 0.00 0.00 0.00 75 1017.0
20260506103503 37 0 0.0 0.0 0.00 0.00 0.00 74 1016.9
20260506103008 38 0 0.0 0.0 0.00 0.00 0.00 74 1016.9
20260506102503 38 0 0.0 0.0 0.00 0.00 0.00 73 1016.9
20260506101508 39 0 0.0 0.0 0.00 0.00 0.00 75 1016.8
20260506101003 39 0 0.0 0.0 0.00 0.00 0.00 76 1016.7
20260506100503 39 0 0.0 0.0 0.00 0.00 0.00 74 1016.7
20260506100009 39 0 0.0 0.0 0.00 0.00 0.00 73 1016.7
20260506095503 39 0 0.0 0.0 0.00 0.00 0.00 73 1016.6
20260506095004 40 0 0.0 0.0 0.00 0.00 0.00 73 1016.6
20260506094509 40 0 0.0 0.0 0.00 0.00 0.00 74 1016.5
20260506094003 40 0 0.0 0.0 0.00 0.00 0.00 72 1016.6
20260506093008 40 0 0.0 0.0 0.00 0.00 0.00 71 1016.4
20260506092004 40 0 0.0 0.0 0.00 0.00 0.00 70 1016.3
20260506091005 41 0 0.0 0.0 0.00 0.00 0.00 69 1016.2
20260506090503 41 0 0.0 0.0 0.00 0.00 0.00 69 1016.1
20260506090009 41 0 0.0 0.0 0.00 0.00 0.00 68 1016.1
20260506085503 41 0 0.0 0.0 0.00 0.00 0.00 66 1016.0
20260506085003 42 0 0.0 0.0 0.00 0.00 0.00 65 1016.0
20260506084508 42 0 0.0 0.0 0.00 0.00 0.00 65 1016.0
20260506084003 42 0 0.0 0.0 0.00 0.00 0.00 64 1015.9
20260506083504 42 0 0.0 0.0 0.00 0.00 0.00 63 1015.9
20260506083008 43 0 0.0 0.0 0.00 0.00 0.00 63 1015.9
20260506082503 43 0 0.0 0.0 0.00 0.00 0.00 62 1015.9
20260506082004 43 0 0.0 0.0 0.00 0.00 0.00 62 1015.8
20260506081003 44 0 0.0 0.0 0.00 0.00 0.00 62 1015.8
20260506080503 44 0 0.0 0.0 0.00 0.00 0.00 60 1015.9
20260506073503 45 350 0.0 1.0 0.00 0.00 0.00 54 1015.6
20260506073008 46 0 0.0 0.0 0.00 0.00 0.00 52 1015.6
20260506072503 46 351 0.0 1.0 0.00 0.00 0.00 52 1015.6
20260506072003 46 350 0.0 1.0 0.00 0.00 0.00 52 1015.6
20260506071508 46 347 0.0 1.0 0.00 0.00 0.00 51 1015.6
20260506071004 46 345 0.0 1.0 0.00 0.00 0.00 52 1015.5
20260506062504 47 2 0.0 3.0 0.00 0.00 0.00 50 1015.6
20260506062004 47 2 0.0 3.0 0.00 0.00 0.00 50 1015.5
20260506061507 47 348 0.0 3.0 0.00 0.00 0.00 49 1015.5
20260506061004 47 341 0.0 3.0 0.00 0.01 0.00 49 1015.5
20260506060504 47 8 0.0 3.0 0.00 0.01 0.00 50 1015.5
20260506045003 48 345 0.0 1.0 0.00 0.01 0.01 52 1014.7
20260506044508 48 345 0.0 1.0 0.00 0.03 0.01 52 1014.7
20260506044003 48 345 0.0 1.0 0.00 0.03 0.01 52 1014.7
20260506043504 49 345 0.0 1.0 0.00 0.03 0.01 52 1014.6
20260506043008 49 350 0.0 1.0 0.00 0.03 0.01 50 1014.7
20260506042503 49 3 0.0 1.0 0.00 0.04 0.01 49 1014.7
20260506042003 49 3 0.0 1.0 0.00 0.04 0.01 49 1014.6
20260506041508 49 2 0.0 1.0 0.00 0.04 0.01 53 1014.6
20260506041004 49 4 0.0 2.0 0.00 0.04 0.01 48 1014.4
20260506040504 49 7 0.0 2.0 0.00 0.04 0.01 48 1014.5
20260506040008 50 9 0.0 1.0 0.00 0.04 0.01 47 1014.4
20260506035503 50 9 0.0 1.0 0.00 0.04 0.01 48 1014.4
20260506035003 50 9 0.0 1.0 0.00 0.04 0.01 46 1014.5
20260506034508 50 346 0.0 2.0 0.00 0.04 0.01 46 1014.5
20260506034003 50 353 0.0 2.0 0.00 0.04 0.01 45 1014.4
20260506033008 50 16 0.0 1.0 0.00 0.04 0.01 44 1014.3
20260506032503 51 5 0.0 2.0 0.00 0.04 0.01 44 1014.2
20260506032003 51 1 1.0 4.0 0.00 0.04 0.01 44 1014.1
20260506031005 51 345 1.0 5.0 0.00 0.04 0.01 43 1014.0
20260506030504 51 348 1.0 4.0 0.00 0.04 0.01 43 1013.9
20260506030008 51 6 1.0 4.0 0.00 0.04 0.01 43 1013.8
20260506025503 51 7 1.0 4.0 0.00 0.04 0.01 43 1013.8
20260506025004 51 3 1.0 6.0 0.00 0.04 0.01 43 1013.7
20260506024507 52 347 1.0 6.0 0.00 0.04 0.01 43 1013.7
20260506024004 52 349 1.0 5.0 0.00 0.04 0.01 42 1013.6
20260506023504 52 359 1.0 5.0 0.00 0.04 0.01 42 1013.5
20260506023008 52 356 1.0 6.0 0.00 0.04 0.01 42 1013.5
20260506022504 52 10 1.0 6.0 0.00 0.04 0.01 42 1013.4
20260506021509 52 4 1.0 5.0 0.00 0.04 0.01 41 1013.3
20260506021003 52 15 1.0 4.0 0.00 0.04 0.01 41 1013.2
20260506020008 52 16 1.0 5.0 0.00 0.04 0.01 40 1013.2
20260506015505 53 10 1.0 4.0 0.00 0.04 0.01 41 1013.1
20260506015003 53 359 2.0 6.0 0.00 0.04 0.01 40 1013.1
20260506014509 53 356 2.0 6.0 0.00 0.04 0.01 40 1012.9
20260506014003 53 355 2.0 6.0 0.00 0.04 0.01 40 1012.8
20260506013504 53 357 2.0 6.0 0.00 0.04 0.01 40 1012.7
20260506012503 53 9 2.0 8.0 0.00 0.04 0.01 40 1012.6
20260506012003 53 17 2.0 9.0 0.00 0.04 0.01 40 1012.6
20260506011508 53 15 2.0 10.0 0.00 0.04 0.01 40 1012.6
20260506011003 54 356 2.0 10.0 0.00 0.04 0.01 40 1012.5
20260506010504 54 353 3.0 10.0 0.00 0.04 0.01 40 1012.4
20260506005504 54 358 3.0 9.0 0.00 0.04 0.01 40 1012.5
20260506005003 54 355 3.0 7.0 0.00 0.04 0.01 41 1012.5
20260506003503 54 358 3.0 7.0 0.00 0.04 0.01 39 1012.3
20260506003008 54 16 3.0 12.0 0.00 0.04 0.01 39 1012.2
20260506002503 54 7 4.0 12.0 0.00 0.04 0.01 39 1012.3
20260506002004 54 353 4.0 11.0 0.00 0.04 0.01 39 1012.1
20260506001508 55 356 2.0 10.0 0.00 0.04 0.01 39 1012.2
20260506001003 55 359 3.0 10.0 0.00 0.04 0.01 40 1012.2
20260506000008 55 344 3.0 13.0 0.00 0.04 0.01 39 1012.2
20260505235503 55 355 3.0 9.0 0.00 0.04 0.01 40 1012.1
20260505235005 55 4 3.0 11.0 0.00 0.04 0.01 39 1012.1
20260505234508 55 10 3.0 14.0 0.00 0.04 0.01 39 1012.1
20260505234003 55 3 3.0 14.0 0.00 0.04 0.01 38 1012.1
20260505233504 55 343 4.0 14.0 0.00 0.04 0.01 38 1012.0
20260505233008 56 349 4.0 13.0 0.00 0.04 0.01 39 1011.9
20260505232504 56 5 4.0 14.0 0.00 0.04 0.01 39 1011.9
20260505232003 56 357 3.0 14.0 0.00 0.04 0.01 38 1011.9
20260505231508 56 354 3.0 9.0 0.00 0.04 0.01 40 1011.8
20260505231003 56 357 5.0 15.0 0.00 0.04 0.01 40 1011.8
20260505230009 57 351 4.0 12.0 0.00 0.04 0.01 38 1011.8
20260505225504 57 350 3.0 9.0 0.00 0.04 0.01 37 1011.8
20260505225003 58 345 3.0 9.0 0.00 0.04 0.01 38 1011.7
20260505224508 58 336 2.0 9.0 0.00 0.04 0.01 38 1011.6
20260505223503 58 332 2.0 8.0 0.00 0.04 0.01 39 1011.6
20260505223008 58 341 3.0 9.0 0.00 0.04 0.01 38 1011.7
20260505222504 58 7 3.0 13.0 0.00 0.04 0.01 38 1011.6
20260505222004 58 6 4.0 13.0 0.00 0.04 0.01 38 1011.6
20260505221508 57 353 4.0 12.0 0.00 0.04 0.01 39 1011.5
20260505220503 58 341 3.0 11.0 0.00 0.04 0.01 39 1011.5
20260505220008 58 324 2.0 9.0 0.00 0.04 0.01 39 1011.4
20260505215505 58 318 3.0 9.0 0.00 0.04 0.01 40 1011.6
20260505215003 57 320 3.0 9.0 0.00 0.04 0.01 39 1011.5
20260505214508 58 324 3.0 7.0 0.00 0.04 0.01 40 1011.6
20260505214003 58 342 3.0 12.0 0.00 0.04 0.01 40 1011.6
20260505213503 57 351 4.0 12.0 0.00 0.04 0.01 40 1011.6
20260505213009 57 352 3.0 10.0 0.00 0.04 0.01 40 1011.7
20260505212503 58 341 2.0 10.0 0.00 0.04 0.01 40 1011.8
20260505212003 58 330 1.0 8.0 0.00 0.04 0.01 40 1011.9
20260505211508 57 331 2.0 7.0 0.00 0.04 0.01 41 1011.9
20260505211003 57 340 3.0 8.0 0.00 0.04 0.01 40 1012.0
20260505210504 58 343 2.0 8.0 0.00 0.04 0.01 40 1012.0
20260505210009 58 341 2.0 7.0 0.00 0.04 0.01 41 1012.1
20260505205503 58 9 4.0 12.0 0.00 0.04 0.01 41 1012.1
20260505205004 58 11 5.0 12.0 0.00 0.04 0.01 40 1012.2
20260505204508 58 350 4.0 12.0 0.00 0.04 0.01 40 1012.3
20260505204003 58 335 4.0 10.0 0.00 0.04 0.01 39 1012.2
20260505203504 59 348 4.0 9.0 0.00 0.04 0.01 39 1012.1
20260505202503 59 321 3.0 11.0 0.00 0.04 0.01 39 1012.2
20260505202003 60 300 2.0 8.0 0.00 0.04 0.01 38 1012.3
20260505201508 60 295 2.0 7.0 0.00 0.04 0.01 40 1012.3
20260505200503 59 356 3.0 10.0 0.00 0.04 0.01 38 1012.4
20260505200008 59 355 3.0 11.0 0.00 0.04 0.01 39 1012.2
20260505195503 59 347 2.0 11.0 0.00 0.04 0.01 40 1012.4
20260505194508 58 357 3.0 9.0 0.00 0.04 0.01 42 1012.4
20260505194005 59 357 2.0 9.0 0.00 0.04 0.01 41 1012.4
20260505193503 58 351 3.0 9.0 0.00 0.04 0.01 41 1012.6
20260505193009 58 342 3.0 11.0 0.00 0.04 0.01 40 1012.6
20260505192504 58 339 3.0 12.0 0.00 0.04 0.01 41 1012.7
20260505192003 58 330 3.0 12.0 0.00 0.04 0.01 40 1012.7
20260505191508 58 320 2.0 8.0 0.00 0.04 0.01 41 1012.7
20260505190503 58 9 3.0 9.0 0.00 0.04 0.01 44 1012.7
20260505190008 57 19 3.0 9.0 0.00 0.04 0.01 41 1012.7
20260505185504 57 8 2.0 9.0 0.00 0.04 0.01 41 1012.8
20260505185003 57 337 2.0 8.0 0.00 0.04 0.01 43 1012.9
20260505184508 57 2 2.0 9.0 0.00 0.04 0.01 44 1012.8
20260505184003 57 18 2.0 9.0 0.00 0.04 0.01 46 1012.9
20260505183505 57 21 2.0 6.0 0.00 0.04 0.01 44 1012.8
20260505182504 56 355 3.0 9.0 0.00 0.04 0.01 44 1012.9
20260505182003 56 354 2.0 7.0 0.00 0.04 0.01 44 1013.1
20260505181508 56 354 1.0 7.0 0.00 0.04 0.01 45 1013.1
20260505181005 56 166 1.0 3.0 0.00 0.04 0.01 47 1013.2
20260505180503 56 200 1.0 4.0 0.00 0.04 0.01 47 1013.1
20260505175503 56 336 1.0 7.0 0.00 0.04 0.01 48 1013.3
20260505175003 56 341 2.0 7.0 0.00 0.04 0.01 47 1013.3
20260505174508 56 314 2.0 6.0 0.00 0.04 0.01 47 1013.1
20260505174003 56 358 2.0 7.0 0.00 0.04 0.01 49 1013.2
20260505173505 56 350 2.0 7.0 0.00 0.04 0.01 48 1013.3
20260505173008 56 333 2.0 7.0 0.00 0.04 0.01 50 1013.4
20260505172504 55 345 2.0 7.0 0.00 0.04 0.01 48 1013.4
20260505171508 55 327 1.0 5.0 0.00 0.04 0.01 52 1013.6
20260505171003 55 356 1.0 6.0 0.00 0.04 0.01 52 1013.5
20260505170008 53 354 2.0 6.0 0.00 0.04 0.01 53 1013.6
20260505165503 53 332 1.0 5.0 0.00 0.04 0.01 54 1013.8
20260505165004 53 323 1.0 6.0 0.00 0.04 0.01 58 1013.8
20260505164508 52 323 2.0 6.0 0.00 0.04 0.01 58 1013.7
20260505164003 53 328 2.0 6.0 0.00 0.04 0.01 58 1013.7
20260505163503 53 332 1.0 6.0 0.00 0.04 0.01 60 1013.7
20260505162003 52 295 0.0 3.0 0.00 0.04 0.01 63 1013.3
20260505161508 51 317 1.0 4.0 0.00 0.04 0.01 65 1013.2
20260505161003 51 316 1.0 4.0 0.00 0.04 0.01 64 1013.2
20260505160505 50 298 1.0 4.0 0.00 0.04 0.01 65 1013.1
20260505152504 49 356 2.0 6.0 0.00 0.04 0.01 67 1013.1